Terminal Aerodrome Forecast
Issued by NWS

Home | Current Version | Previous Version | Text Only | Print | Product List | Glossary On
Versions: 1 2 3 4 5 6 7 8 9 10 11 12 13 14 15 16 17 18 19 20 21 22 23 24 25 26 27 28 29 30 31 32 33 34 35 36 37 38 39 40 41 42
000
FTAK31 PANC 270541
TAFAIL
TAF
PAIL 270541Z 2706/2806 24009KT P6SM VCSH SCT025 BKN100
      TEMPO 2709/2712 3SM BR BKN006 OVC012
     FM271200 VRB04KT 3SM BR BKN006 OVC012
     FM271800 08008KT P6SM SCT006 OVC025
     FM280000 10015G22KT P6SM VCSH BKN040=

USA.gov is the U.S. government's official web portal to all federal, state and local government web resources and services.